Starlink 35029

operational
NORAD ID: 65445 Int'l Des: 2025-194 Owner: SPXS Country: US Constellation: starlink
LEOCIRCULARRETROGRADESSO

Starlink 35029について

説明を読み込み中...

リアルタイム位置

3D地球を読み込み中...

次回通過

高度履歴

Altitude vs Time

uPlot chart will show altitude changes over time

軌道要素

1 65445U 25194M 26062.14509368 .00002001 00000-0 14286-3 0 9994
2 65445 97.6012 277.9527 0001567 88.8944 271.2462 15.05651064 28669
Epoch: Mar 3, 2026 • Age: 18 hours

現在のステータス

高度 553.6 km
速度 7.58 km/s
衛星直下点 -6.24°S, 149.29°W
打ち上げ日 Sep 3, 2025
運用期間 0.4 years
タイプ internet

技術仕様

分類 Payload
質量 575.00 kg
乾燥質量 530.00 kg
総質量 575.00 kg
長さ 0.30 m
直径 4.10 m
スパン 29.00 m
形状 Box + pan
製造者 SPXS
バスタイプ Starlink V2MO
フェーズステータス In Orbit
所有者/国 SPXS/US

大規模コンステレーション

Loading constellations...